Tracking 25193 objects as of 18-Jan-2022
HD Live streaming from Space Station
objects crossing your sky now

RADUGA 1-5

Track RADUGA 1-5 now!
RADUGA 1-5 is classified as:


NORAD ID: 26477
Int'l Code: 2000-049A
Perigee: 35,787.6 km
Apogee: 35,837.8 km
Inclination: 13.0 °
Period: 1,437.1 minutes
Semi major axis: 42183 km
RCS: 10 m2 (large)
Launch date: August 28, 2000
Source: Commonwealth of Independent States (former USSR) (CIS)
Launch site: TYURATAM MISSILE AND SPACE COMPLEX (TTMTR)

Military communication.
aabbcc
Your satellite tracking list
Your tracking list is empty




NASA's NSSDC Master Catalog

Two Line Element Set (TLE):
1 26477U 00049A   22017.53301194 -.00000089  00000-0  00000+0 0  9994
2 26477  13.0366  19.5993 0005956  40.8916 323.9051  1.00204184 78330
Source of the keplerian elements: AFSPC